Total_Precipitation_Accumulation
1.65 1.55 1.51 1.69 1.80 2.10 2.36 2.52 2.41 2.17 1.87 1.60 1.57 1.54 1.64 1.67 1.75 1.87 2.36 2.92 3.47 4.36 4.83 4.76 4.62 4.51 4.47 4.38 4.21 4.09 3.88 3.60 3.62 3.89 4.45 4.69 4.36 3.81 3.43 3.14 2.91 2.66 2.77
1.43 1.47 1.39 1.50 1.70 2.04 2.48 2.62 2.37 2.22 2.00 1.84 1.80 1.71 1.69 1.66 1.71 1.68 1.95 2.30 2.44 2.91 3.65 4.32 4.70 4.75 4.77 4.66 4.20 4.02 3.80 3.52 3.47 3.63 3.66 3.72 3.73 3.41 3.13 3.06 2.82 2.64 2.89
1.22 1.32 1.40 1.44 1.60 1.97 2.45 2.76 2.62 2.41 2.11 2.00 1.96 1.88 1.77 1.78 1.73 1.65 1.80 2.06 2.03 2.17 2.71 3.50 4.34 4.74 4.69 4.63 4.24 4.00 3.64 3.23 3.09 3.20 3.29 3.19 3.30 3.29 3.12 3.04 2.86 2.71 2.77
1.26 1.35 1.47 1.45 1.53 1.86 2.30 2.70 2.84 2.82 2.59 2.39 2.22 2.07 1.94 2.10 1.93 1.78 1.84 2.03 2.20 2.08 2.24 2.71 3.40 4.21 4.56 4.61 4.11 3.80 3.60 3.20 2.93 2.86 2.97 2.82 2.99 3.19 3.22 3.08 3.00 3.02 2.97
1.34 1.44 1.65 1.70 1.71 1.96 2.20 2.35 2.59 2.78 2.84 2.62 2.25 2.15 2.04 2.17 2.27 2.16 2.21 2.30 2.35 2.32 2.25 2.27 2.60 3.07 3.81 4.26 4.08 3.78 3.64 3.36 3.11 2.86 2.91 2.76 2.74 3.00 3.19 3.02 3.04 3.17 3.17
1.56 1.52 1.70 1.76 1.82 2.12 2.26 2.41 2.71 2.83 2.91 2.89 2.45 2.24 2.14 2.13 2.19 2.39 2.51 2.51 2.52 2.36 2.36 2.23 2.39 2.50 3.12 3.77 3.88 3.72 3.48 3.42 3.42 3.25 3.28 3.14 2.88 2.96 3.14 3.01 3.03 3.11 3.18
1.65 1.69 1.76 1.81 1.87 2.02 2.11 2.29 2.75 2.92 2.94 2.85 2.92 2.84 2.62 2.32 2.22 2.29 2.43 2.65 2.77 2.60 2.56 2.60 2.48 2.40 2.54 2.95 3.20 3.33 3.30 3.57 3.74 3.62 3.48 3.35 3.12 3.22 3.29 3.07 3.07 3.07 3.04
1.63 1.55 1.78 1.95 1.93 2.11 2.18 2.36 2.75 3.10 2.94 2.85 3.25 3.68 3.41 3.05 2.61 2.29 2.34 2.43 2.68 2.71 2.60 2.47 2.30 2.28 2.37 2.51 2.53 2.72 2.98 3.51 4.01 3.84 3.49 3.44 3.35 3.21 3.26 3.13 3.04 2.95 2.89
1.92 1.84 1.94 2.12 2.10 2.18 2.29 2.36 2.53 3.09 3.36 3.17 3.12 3.71 3.61 3.40 3.29 2.70 2.24 2.15 2.44 2.66 2.69 2.52 2.36 2.37 2.40 2.54 2.49 2.45 2.61 3.00 3.68 3.78 3.61 3.72 3.59 3.26 3.01 2.87 2.81 2.91 2.95
2.20 2.04 2.08 2.19 2.24 2.32 2.30 2.14 2.35 2.92 3.51 3.62 3.37 3.09 2.93 2.86 3.03 3.00 2.41 2.04 2.10 2.33 2.57 2.46 2.41 2.48 2.52 2.63 2.69 2.49 2.36 2.46 3.00 3.66 3.95 3.90 3.72 3.44 3.10 2.86 2.76 2.81 2.82
2.25 2.10 2.04 2.21 2.31 2.37 2.34 2.39 2.56 2.88 3.24 3.59 3.61 3.36 3.04 2.75 2.29 2.47 2.55 2.32 2.02 1.98 2.07 2.16 2.31 2.40 2.46 2.45 2.60 2.50 2.23 2.08 2.36 3.04 3.69 3.86 3.71 3.57 3.39 3.26 3.24 3.21 3.07
2.09 2.06 2.08 2.10 2.11 2.20 2.29 2.44 2.69 2.84 3.03 3.26 3.37 3.06 2.95 2.88 2.61 2.40 2.24 2.31 2.30 2.03 1.81 1.75 1.87 2.10 2.21 2.30 2.19 2.27 2.11 2.03 2.07 2.22 2.59 3.08 3.31 3.47 3.55 3.56 3.45 3.32 3.31
1.87 1.90 2.00 1.99 1.90 1.92 2.06 2.22 2.43 2.45 2.58 2.80 2.94 2.81 2.64 2.47 2.42 2.48 2.42 2.30 2.17 1.90 1.73 1.52 1.59 1.76 1.79 2.00 2.19 2.17 1.91 1.90 1.84 1.82 1.84 2.03 2.40 2.80 3.19 3.57 3.65 3.55 3.52
1.66 1.61 1.65 1.74 1.76 1.76 1.83 1.99 2.12 2.08 2.13 2.34 2.41 2.49 2.40 2.29 2.28 2.29 2.35 2.49 2.37 2.12 1.73 1.38 1.41 1.58 1.57 1.67 2.02 2.09 1.69 1.63 1.50 1.45 1.50 1.61 1.79 2.12 2.54 2.90 3.18 3.33 3.38
1.45 1.38 1.42 1.54 1.64 1.66 1.68 1.85 1.96 1.90 1.95 2.05 2.19 2.36 2.30 2.22 2.19 2.21 2.32 2.44 2.51 2.41 2.09 1.57 1.40 1.36 1.39 1.48 1.86 1.74 1.61 1.62 1.48 1.38 1.30 1.35 1.46 1.60 1.81 2.10 2.33 2.49 2.56
1.41 1.37 1.37 1.38 1.42 1.45 1.51 1.73 1.91 1.97 1.96 1.98 2.03 2.15 2.27 2.24 2.23 2.22 2.31 2.36 2.37 2.42 2.28 1.79 1.50 1.37 1.46 1.38 1.65 1.41 1.51 1.74 1.54 1.34 1.24 1.22 1.27 1.38 1.52 1.73 1.76 1.71 1.70
1.24 1.19 1.15 1.19 1.31 1.30 1.31 1.50 1.60 1.64 1.80 1.88 1.82 1.85 2.00 2.10 2.23 2.23 2.24 2.26 2.33 2.34 2.25 1.95 1.58 1.44 1.57 1.59 1.64 1.46 1.40 1.45 1.38 1.37 1.27 1.18 1.15 1.24 1.30 1.45 1.54 1.40 1.31
1.13 1.15 1.14 1.06 1.19 1.32 1.33 1.36 1.38 1.39 1.56 1.67 1.69 1.74 1.77 1.79 1.90 2.04 2.15 2.11 2.19 2.26 2.27 2.13 1.81 1.61 1.65 1.74 1.91 1.86 1.72 1.59 1.51 1.63 1.58 1.41 1.30 1.30 1.35 1.42 1.52 1.41 1.19
1.05 1.12 1.24 1.19 1.14 1.20 1.27 1.27 1.26 1.29 1.33 1.41 1.46 1.54 1.57 1.68 1.82 1.82 1.87 1.95 2.02 2.09 2.26 2.22 2.08 1.96 1.85 1.80 1.88 1.86 1.90 2.01 1.89 1.83 1.87 1.70 1.55 1.46 1.43 1.47 1.53 1.49 1.31
1.07 1.08 1.06 1.13 1.16 1.18 1.23 1.22 1.21 1.18 1.19 1.19 1.32 1.41 1.50 1.58 1.68 1.73 1.73 1.85 1.98 2.09 2.15 2.14 2.05 1.98 1.95 1.94 1.94 1.94 2.03 2.16 2.22 2.02 1.94 1.82 1.81 1.74 1.63 1.58 1.54 1.54 1.50
0.86 0.93 0.93 0.94 0.99 1.09 1.11 1.09 1.10 1.14 1.19 1.20 1.29 1.34 1.38 1.43 1.50 1.59 1.58 1.72 1.86 2.05 2.15 2.19 2.05 1.93 1.88 1.90 1.89 1.90 2.00 2.26 2.30 2.27 2.18 1.99 1.84 1.69 1.66 1.70 1.68 1.67 1.64
0.74 0.75 0.78 0.86 0.89 0.92 1.12 1.14 1.08 1.09 1.15 1.17 1.21 1.25 1.35 1.43 1.40 1.38 1.38 1.44 1.57 1.66 1.86 1.99 2.04 1.90 1.79 1.79 1.90 2.02 2.04 2.22 2.39 2.26 2.10 2.14 2.03 1.92 1.77 1.70 1.85 1.86 1.75
0.81 0.76 0.76 0.82 0.78 0.80 0.99 0.98 1.09 1.19 1.17 1.12 1.09 1.21 1.30 1.33 1.40 1.39 1.32 1.32 1.30 1.34 1.45 1.63 1.75 1.71 1.67 1.71 1.84 1.97 2.07 2.15 2.14 2.19 2.10 2.17 2.10 2.00 1.78 1.77 1.91 1.80 1.76
0.84 0.87 0.86 0.87 0.79 0.74 0.86 0.88 1.02 1.07 1.06 1.02 1.06 1.15 1.27 1.36 1.41 1.44 1.37 1.42 1.36 1.22 1.20 1.27 1.44 1.54 1.55 1.70 1.90 2.10 2.28 2.27 2.17 2.12 2.06 2.11 1.95 1.81 1.69 1.68 1.86 1.77 1.68
0.79 0.85 0.95 0.94 0.83 0.76 0.82 0.86 0.97 1.04 1.10 1.06 1.05 1.10 1.27 1.32 1.53 1.62 1.46 1.48 1.45 1.25 1.18 1.25 1.29 1.38 1.53 1.69 1.89 2.13 2.27 2.32 2.30 2.20 1.97 1.85 1.71 1.73 1.73 1.69 1.73 1.75 1.61
0.88 0.88 0.87 0.84 0.77 0.74 0.82 0.83 0.91 0.92 1.06 1.13 1.15 1.16 1.41 1.46 1.55 1.55 1.44 1.56 1.63 1.47 1.21 1.17 1.22 1.36 1.47 1.64 1.93 2.08 2.34 2.38 2.21 2.18 1.97 1.80 1.75 1.82 1.99 1.87 1.70 1.60 1.52